Powrót do katalogu

NIMBUS 2 DEB

AktywnyLEO
NORAD 40646·DEBRIS·🇺🇸 United States

Wystrzelony May 15, 1966 z Vandenberg Space Force Base

Loading…

Następne Przeloty (najbliższe 24 godziny)

TLE

Starzejące sięSource: Space-Track

Epoka: Sep 12, 2026, 03:46 UTC

1 40646U 66040BK  26255.15721759  .00001218  00000-0  19931-2 0  9990
2 40646 100.3694 152.2499 0048871 282.4683  77.0983 13.49472636555709

Śledź NIMBUS 2 DEB w czasie rzeczywistym z AllMySat

Download on the App Store